{"data":{"norad_id":57051,"epoch":"2026-05-25T01:12:38.315808Z","epoch_age_seconds":71447,"freshness":"FRESH","line1":"1 57051U 23088D   26145.05044347 -.00000471  00000+0 -75813-5 0  9996","line2":"2 57051  43.0050  39.1763 0001379 250.6054 109.4648 15.27580503162011","mean_motion":15.27580503,"eccentricity":0.0001379,"inclination_deg":43.005,"raan_deg":39.1763,"arg_perigee_deg":250.6054,"mean_anomaly_deg":109.4648,"bstar":-7.5813e-6,"rev_number":16201,"period_min":94.266717673602,"perigee_km":482.10143252217,"apogee_km":483.99374723206,"semimajor_km":6861.1845898771,"source":"CELESTRAK","updated_at":"2026-05-25T13:38:18.208270Z"}}